Location: Buffign�court
(47.8126°N, 6.0176°E)
Time: 19:08:07
(UTC+00:00)

USA 32 - Pass Details

Date: 16 June 2021
Orbit: 777 x 783 km, 85.0° (Epoch: 15 July)

Event Time Altitude Azimuth Distance (km) Brightness Sun altitude
Rises 23:14:07 0° 357° (N) 3,278 9.0 -18.6°
Reaches altitude 10° 23:16:33 10° 2° (N) 2,345 7.8 -18.7°
Maximum altitude 23:21:42 54° 80° (E) 940 4.4 -18.7°
Enters shadow 23:24:07 30° 144° (SE) 1,380 4.9 -18.8°
